Weather History for Florennes, Belgium

Change the Weather History Date:

Wednesday, July 17, 2013

  Actual Average Record
Temperature  
Mean Temperature 69 °F -  
Max Temperature 78 °F 66 °F 82 °F (2014)
Min Temperature 60 °F 54 °F 44 °F (2001)
Cooling Degree Days 4    
Growing Degree Days 19 (Base 50)    
Moisture  
Dew Point 55 °F    
Average Humidity 60    
Maximum Humidity 82    
Minimum Humidity 33    
Precipitation  
Precipitation 0.00 in - - ()
Sea Level Pressure  
Sea Level Pressure 30.22 in    
Wind  
Wind Speed 5 mph ()    
Max Wind Speed 13 mph    
Max Gust Speed -    
Visibility 8.3 miles    
Events      
Averages and records for this station are not official NWS values.
T = Trace of Precipitation, MM = Missing Value Source: Averaged Metar Reports

Daily Weather History Graph

Daily Weather History Graph

Search for Another Location

Airport:

Trip Planner

Search our weather history database for the weather conditions in past years. The results will help you decide how hot, cold, wet, or windy it might be!

Date:

Astronomy

Jul. 17, 2013 Rise Set
Actual Time 5:50 AM CEST 9:44 PM CEST
Civil Twilight 5:08 AM CEST 10:26 PM CEST
Nautical Twilight 4:09 AM CEST 11:24 PM CEST
Astronomical Twilight 2:28 AM CEST 1:01 AM CEST
Moon 4:05 PM CEST (7/17) 1:01 AM CEST (7/17)
Length of Visible Light 17h 18m
Length of Day
15h 54m
Waxing Gibbous, 64% of the Moon is Illuminated
Jul 17
Waxing Gibbous
Jul 22
Full
Jul 29
Last Quarter
Aug 6
New
Aug 14
First Quarter

Hourly Weather History & Observations

Time (CEST) Temp. Dew Point Humidity Pressure Visibility Wind Dir Wind Speed Gust Speed Precip Events Conditions
12:00 AM 66 °F 54 °F 57% 30.21 in 16 mi 2.2 mph - -   Scattered Clouds
12:25 AM 66.2 °F 55.4 °F 68% 30.21 in 6.2 mi Variable 1.2 mph - N/A   Mostly Cloudy
12:55 AM 66.2 °F 55.4 °F 68% 30.21 in 6.2 mi Variable 2.3 mph - N/A   Mostly Cloudy
1:00 AM 65 °F 54 °F 60% 30.21 in 16 mi Calm Calm - -   Scattered Clouds
1:25 AM 64.4 °F 55.4 °F 73% 30.21 in 6.2 mi NE 4.6 mph - N/A   Mostly Cloudy
1:55 AM 62.6 °F 55.4 °F 77% 30.21 in 6.2 mi Variable 3.5 mph - N/A   Mostly Cloudy
2:00 AM 63 °F 54 °F 66% 30.22 in 16 mi 4.5 mph - -   Scattered Clouds
2:25 AM 62.6 °F 53.6 °F 72% 30.21 in 6.2 mi Variable 3.5 mph - N/A   Mostly Cloudy
2:55 AM 62.6 °F 55.4 °F 77% 30.21 in 6.2 mi Variable 3.5 mph - N/A   Mostly Cloudy
3:00 AM 63 °F 54 °F 66% 30.22 in 16 mi 2.3 mph - -   Scattered Clouds
3:25 AM 60.8 °F 55.4 °F 82% 30.21 in 6.2 mi Variable 3.5 mph - N/A   Mostly Cloudy
3:55 AM 62.6 °F 53.6 °F 72% 30.21 in 6.2 mi Variable 3.5 mph - N/A   Mostly Cloudy
4:00 AM 62 °F 54 °F 69% 30.21 in 16 mi 4.5 mph - -   Scattered Clouds
4:25 AM 60.8 °F 53.6 °F 77% 30.21 in 6.2 mi Variable 3.5 mph - N/A   Mostly Cloudy
4:55 AM 60.8 °F 53.6 °F 77% 30.21 in 6.2 mi Variable 2.3 mph - N/A   Mostly Cloudy
5:00 AM 61 °F 54 °F 70% 30.21 in 16 mi 2.2 mph - -   Scattered Clouds
5:25 AM 60.8 °F 53.6 °F 77% 30.21 in 6.2 mi Variable 1.2 mph - N/A   Mostly Cloudy
5:55 AM 60.8 °F 53.6 °F 77% 30.21 in 6.2 mi ENE 4.6 mph - N/A   Mostly Cloudy
6:00 AM 61 °F 54 °F 70% 30.22 in 16 mi ENE 4.5 mph - -   Scattered Clouds
6:25 AM 60.8 °F 53.6 °F 77% 30.21 in 6.2 mi Variable 2.3 mph - N/A   Mostly Cloudy
6:55 AM 60.8 °F 53.6 °F 77% 30.21 in 6.2 mi Variable 2.3 mph - N/A   Mostly Cloudy
7:00 AM 61 °F 54 °F 72% 30.22 in 16 mi 1.2 mph - -   Scattered Clouds
7:25 AM 62.6 °F 53.6 °F 72% 30.21 in 6.2 mi SE 1.2 mph - N/A   Mostly Cloudy
7:55 AM 62.6 °F 55.4 °F 77% 30.24 in 6.2 mi East 2.3 mph - N/A   Mostly Cloudy
8:00 AM 62 °F 54 °F 69% 30.22 in 10 mi East 2.2 mph - -   Scattered Clouds
8:25 AM 62.6 °F 55.4 °F 77% 30.24 in 6.2 mi Variable 2.3 mph - N/A   Mostly Cloudy
8:55 AM 66.2 °F 57.2 °F 73% 30.24 in 6.2 mi ENE 5.8 mph - N/A   Mostly Cloudy
9:00 AM 65 °F 56 °F 66% 30.22 in 11 mi ENE 6.7 mph - -   Scattered Clouds
9:25 AM 66.2 °F 57.2 °F 73% 30.24 in 6.2 mi ENE 3.5 mph - N/A   Mostly Cloudy
9:55 AM 68.0 °F 57.2 °F 68% 30.24 in 6.2 mi NE 4.6 mph - N/A   Mostly Cloudy
10:00 AM 68 °F 57 °F 58% 30.23 in 11 mi NE 2.3 mph - -   Scattered Clouds
10:25 AM 71.6 °F 55.4 °F 57% 30.24 in 6.2 mi ENE 9.2 mph - N/A   Mostly Cloudy
10:55 AM 73.4 °F 55.4 °F 53% 30.24 in 6.2 mi ENE 9.2 mph - N/A   Mostly Cloudy
11:00 AM 73 °F 55 °F 44% 30.22 in 12 mi NE 8.9 mph - -   Scattered Clouds
11:25 AM 73.4 °F 55.4 °F 53% 30.24 in 6.2 mi ENE 10.4 mph - N/A   Mostly Cloudy
11:55 AM 75.2 °F 55.4 °F 50% 30.24 in 6.2 mi NE 10.4 mph - N/A   Mostly Cloudy
12:00 PM 75 °F 54 °F 38% 30.21 in 12 mi NE 11.2 mph - -   Clear
12:25 PM 75.2 °F 53.6 °F 47% 30.24 in 6.2 mi ENE 10.4 mph - N/A   Mostly Cloudy
12:55 PM 75.2 °F 53.6 °F 47% 30.24 in 6.2 mi East 10.4 mph - N/A   Mostly Cloudy
1:00 PM 76 °F 54 °F 36% 30.20 in 12 mi ENE 4.6 mph - -   Clear
1:25 PM 75.2 °F 53.6 °F 47% 30.24 in 6.2 mi NE 9.2 mph - N/A   Mostly Cloudy
1:55 PM 77.0 °F 57.2 °F 50% 30.24 in 6.2 mi NNE 9.2 mph - N/A   Mostly Cloudy
2:00 PM 76 °F 56 °F 40% 30.20 in 12 mi NNE 8.9 mph - -   Scattered Clouds
2:25 PM 77.0 °F 53.6 °F 44% 30.24 in 6.2 mi ENE 8.1 mph - N/A   Mostly Cloudy
2:55 PM 77.0 °F 57.2 °F 50% 30.21 in 6.2 mi NNE 9.2 mph - N/A   Mostly Cloudy
3:00 PM 77 °F 56 °F 39% 30.19 in 12 mi NNE 8.9 mph - -   Scattered Clouds
3:25 PM 77.0 °F 55.4 °F 47% 30.21 in 6.2 mi NE 8.1 mph - N/A   Mostly Cloudy
3:55 PM 77.0 °F 55.4 °F 47% 30.21 in 6.2 mi NE 10.4 mph - N/A   Mostly Cloudy
4:00 PM 77 °F 56 °F 37% 30.18 in 12 mi NE 8.9 mph - -   Scattered Clouds
4:25 PM 77.0 °F 53.6 °F 44% 30.21 in 6.2 mi NE 8.1 mph - N/A   Mostly Cloudy
4:55 PM 77.0 °F 55.4 °F 47% 30.21 in 6.2 mi NE 9.2 mph - N/A   Mostly Cloudy
5:25 PM 77.0 °F 55.4 °F 47% 30.21 in 6.2 mi NNE 10.4 mph - N/A   Mostly Cloudy
5:55 PM 77.0 °F 53.6 °F 44% 30.21 in 6.2 mi ENE 10.4 mph - N/A   Mostly Cloudy
6:00 PM 78 °F 54 °F 33% 30.18 in 12 mi NE 8.9 mph - -   Scattered Clouds
6:25 PM 77.0 °F 53.6 °F 44% 30.21 in 6.2 mi NE 12.7 mph - N/A   Scattered Clouds
6:55 PM 75.2 °F 55.4 °F 50% 30.21 in 6.2 mi NE 11.5 mph - N/A   Mostly Cloudy
7:25 PM 75.2 °F 51.8 °F 44% 30.21 in 6.2 mi ENE 10.4 mph - N/A   Mostly Cloudy
7:55 PM 75.2 °F 55.4 °F 50% 30.21 in 6.2 mi ENE 10.4 mph - N/A   Mostly Cloudy
8:00 PM 75 °F 56 °F 40% 30.18 in 12 mi NE 11.2 mph - -   Scattered Clouds
8:25 PM 73.4 °F 55.4 °F 53% 30.21 in 6.2 mi ENE 8.1 mph - N/A   Mostly Cloudy
8:55 PM 71.6 °F 57.2 °F 60% 30.21 in 6.2 mi NE 6.9 mph - N/A   Mostly Cloudy
9:25 PM 69.8 °F 59.0 °F 68% 30.21 in 6.2 mi NE 6.9 mph - N/A   Mostly Cloudy
9:55 PM 68.0 °F 59.0 °F 73% 30.21 in 6.2 mi NE 4.6 mph - N/A   Mostly Cloudy
10:25 PM 68.0 °F 57.2 °F 68% 30.24 in 6.2 mi NE 5.8 mph - N/A   Mostly Cloudy
10:55 PM 66.2 °F 57.2 °F 73% 30.24 in 6.2 mi NE 6.9 mph - N/A   Mostly Cloudy
11:00 PM 67 °F 58 °F 64% 30.22 in 11 mi NE 6.7 mph - -   Scattered Clouds
11:25 PM 66.2 °F 57.2 °F 73% 30.24 in 6.2 mi NE 5.8 mph - N/A   Mostly Cloudy
11:55 PM 64.4 °F 57.2 °F 77% 30.24 in 6.2 mi ENE 2.3 mph - N/A   Mostly Cloudy